owner,sensor,date,latitude,longitude,vertical_datum,mass_concentration_of_oxygen_in_sea_water,qcFlag 
DISL,ioos:station:DISL:CATA:1,2014-05-01T00:00:00Z,30.3085,-88.1395,2.333,8.18,1111122 
DISL,ioos:station:DISL:CATA:1,2014-05-01T00:30:00Z,30.3085,-88.1395,2.314,7.99,1111122 
DISL,ioos:station:DISL:CATA:1,2014-05-01T01:00:00Z,30.3085,-88.1395,2.292,7.97,1111122 
DISL,ioos:station:DISL:CATA:1,2014-05-01T01:30:00Z,30.3085,-88.1395,2.253,7.85,1111122 
DISL,ioos:station:DISL:CATA:1,2014-05-01T02:00:00Z,30.3085,-88.1395,2.225,7.88,1111122 
DISL,ioos:station:DISL:CATA:1,2014-05-01T02:30:00Z,30.3085,-88.1395,2.251,7.82,1111122 
DISL,ioos:station:DISL:CATA:1,2014-05-01T03:00:00Z,30.3085,-88.1395,2.223,7.85,1111122 
DISL,ioos:station:DISL:CATA:1,2014-05-01T03:30:00Z,30.3085,-88.1395,2.238,7.7,1111122 
DISL,ioos:station:DISL:CATA:1,2014-05-01T04:00:00Z,30.3085,-88.1395,2.196,7.83,1111122 
DISL,ioos:station:DISL:CATA:1,2014-05-01T04:30:00Z,30.3085,-88.1395,2.172,7.98,1111122 
DISL,ioos:station:DISL:CATA:1,2014-05-01T05:00:00Z,30.3085,-88.1395,2.19,8.09,1111122 
DISL,ioos:station:DISL:CATA:1,2014-05-01T05:30:00Z,30.3085,-88.1395,2.202,8.11,1111122 
DISL,ioos:station:DISL:CATA:1,2014-05-01T06:00:00Z,30.3085,-88.1395,2.19,8.07,1111122 
DISL,ioos:station:DISL:CATA:1,2014-05-01T06:30:00Z,30.3085,-88.1395,2.196,8.0,1111122 
DISL,ioos:station:DISL:CATA:1,2014-05-01T07:00:00Z,30.3085,-88.1395,2.197,8.04,1111122 
DISL,ioos:station:DISL:CATA:1,2014-05-01T07:30:00Z,30.3085,-88.1395,2.196,8.06,1111122 
DISL,ioos:station:DISL:CATA:1,2014-05-01T08:00:00Z,30.3085,-88.1395,2.199,8.05,1111122 
DISL,ioos:station:DISL:CATA:1,2014-05-01T08:30:00Z,30.3085,-88.1395,2.219,8.07,1111122 
DISL,ioos:station:DISL:CATA:1,2014-05-01T09:00:00Z,30.3085,-88.1395,2.191,8.11,1111122 
DISL,ioos:station:DISL:CATA:1,2014-05-01T09:30:00Z,30.3085,-88.1395,2.195,8.13,1111122 
DISL,ioos:station:DISL:CATA:1,2014-05-01T10:00:00Z,30.3085,-88.1395,2.21,8.14,1111122 
DISL,ioos:station:DISL:CATA:1,2014-05-01T10:30:00Z,30.3085,-88.1395,2.206,8.1,1111122 
DISL,ioos:station:DISL:CATA:1,2014-05-01T11:00:00Z,30.3085,-88.1395,2.251,8.04,1111122 
DISL,ioos:station:DISL:CATA:1,2014-05-01T11:30:00Z,30.3085,-88.1395,2.27,7.81,1111122 
DISL,ioos:station:DISL:CATA:1,2014-05-01T12:00:00Z,30.3085,-88.1395,2.285,7.68,1111122 
DISL,ioos:station:DISL:CATA:1,2014-05-01T12:30:00Z,30.3085,-88.1395,2.309,7.77,1111122 
DISL,ioos:station:DISL:CATA:1,2014-05-01T13:00:00Z,30.3085,-88.1395,2.311,7.63,1111122 
DISL,ioos:station:DISL:CATA:1,2014-05-01T13:30:00Z,30.3085,-88.1395,2.34,7.65,1111122 
DISL,ioos:station:DISL:CATA:1,2014-05-01T14:00:00Z,30.3085,-88.1395,2.366,7.65,1111122 
DISL,ioos:station:DISL:CATA:1,2014-05-01T14:30:00Z,30.3085,-88.1395,2.407,7.71,1111122 
DISL,ioos:station:DISL:CATA:1,2014-05-01T15:00:00Z,30.3085,-88.1395,2.439,7.94,1111122 
DISL,ioos:station:DISL:CATA:1,2014-05-01T15:30:00Z,30.3085,-88.1395,2.461,8.55,1111122 
DISL,ioos:station:DISL:CATA:1,2014-05-01T16:00:00Z,30.3085,-88.1395,2.481,8.58,1111122 
DISL,ioos:station:DISL:CATA:1,2014-05-01T16:30:00Z,30.3085,-88.1395,2.507,8.3,1111122 
DISL,ioos:station:DISL:CATA:1,2014-05-01T17:00:00Z,30.3085,-88.1395,2.506,8.75,1111122 
DISL,ioos:station:DISL:CATA:1,2014-05-01T17:30:00Z,30.3085,-88.1395,2.523,8.73,1111122 
DISL,ioos:station:DISL:CATA:1,2014-05-01T18:00:00Z,30.3085,-88.1395,2.517,8.68,1111122 
DISL,ioos:station:DISL:CATA:1,2014-05-01T18:30:00Z,30.3085,-88.1395,2.51,8.62,1111122 
DISL,ioos:station:DISL:CATA:1,2014-05-01T19:00:00Z,30.3085,-88.1395,2.506,8.62,1111122 
DISL,ioos:station:DISL:CATA:1,2014-05-01T19:30:00Z,30.3085,-88.1395,2.484,8.39,1111122 
DISL,ioos:station:DISL:CATA:1,2014-05-01T20:00:00Z,30.3085,-88.1395,2.467,8.78,1111122 
DISL,ioos:station:DISL:CATA:1,2014-05-01T20:30:00Z,30.3085,-88.1395,2.455,9.59,1111122 
DISL,ioos:station:DISL:CATA:1,2014-05-01T21:00:00Z,30.3085,-88.1395,2.428,9.91,1111122 
DISL,ioos:station:DISL:CATA:1,2014-05-01T21:30:00Z,30.3085,-88.1395,2.408,9.42,1111122 
DISL,ioos:station:DISL:CATA:1,2014-05-01T22:00:00Z,30.3085,-88.1395,2.382,9.29,1111122 
DISL,ioos:station:DISL:CATA:1,2014-05-01T22:30:00Z,30.3085,-88.1395,2.341,9.79,1111122 
DISL,ioos:station:DISL:CATA:1,2014-05-01T23:00:00Z,30.3085,-88.1395,2.271,9.81,1111122 
DISL,ioos:station:DISL:CATA:1,2014-05-01T23:30:00Z,30.3085,-88.1395,2.231,9.6,1111122 
DISL,ioos:station:DISL:CATA:1,2014-05-02T00:00:00Z,30.3085,-88.1395,2.176,9.48,1111122 
DISL,ioos:station:DISL:CATA:1,2014-05-02T00:30:00Z,30.3085,-88.1395,2.144,9.21,1111122 
DISL,ioos:station:DISL:CATA:1,2014-05-02T01:00:00Z,30.3085,-88.1395,2.12,8.95,1111122 
DISL,ioos:station:DISL:CATA:1,2014-05-02T01:30:00Z,30.3085,-88.1395,2.102,8.77,1111122 
DISL,ioos:station:DISL:CATA:1,2014-05-02T02:00:00Z,30.3085,-88.1395,2.081,8.73,1111122 
DISL,ioos:station:DISL:CATA:1,2014-05-02T02:30:00Z,30.3085,-88.1395,2.078,8.69,1111122 
DISL,ioos:station:DISL:CATA:1,2014-05-02T03:00:00Z,30.3085,-88.1395,2.072,8.64,1111122 
DISL,ioos:station:DISL:CATA:1,2014-05-02T03:30:00Z,30.3085,-88.1395,2.064,8.61,1111122 
DISL,ioos:station:DISL:CATA:1,2014-05-02T04:00:00Z,30.3085,-88.1395,2.074,8.57,1111122 
DISL,ioos:station:DISL:CATA:1,2014-05-02T04:30:00Z,30.3085,-88.1395,2.057,8.51,1111122 
DISL,ioos:station:DISL:CATA:1,2014-05-02T05:00:00Z,30.3085,-88.1395,2.049,8.44,1111122 
DISL,ioos:station:DISL:CATA:1,2014-05-02T05:30:00Z,30.3085,-88.1395,2.054,8.37,1111122 
DISL,ioos:station:DISL:CATA:1,2014-05-02T06:00:00Z,30.3085,-88.1395,2.053,8.32,1111122 
DISL,ioos:station:DISL:CATA:1,2014-05-02T06:30:00Z,30.3085,-88.1395,2.06,8.26,1111122 
DISL,ioos:station:DISL:CATA:1,2014-05-02T07:00:00Z,30.3085,-88.1395,2.075,8.22,1111122 
DISL,ioos:station:DISL:CATA:1,2014-05-02T07:30:00Z,30.3085,-88.1395,2.129,8.18,1111122 
DISL,ioos:station:DISL:CATA:1,2014-05-02T08:00:00Z,30.3085,-88.1395,2.163,7.96,1111122 
DISL,ioos:station:DISL:CATA:1,2014-05-02T08:30:00Z,30.3085,-88.1395,2.188,8.11,1111122 
DISL,ioos:station:DISL:CATA:1,2014-05-02T09:00:00Z,30.3085,-88.1395,2.191,8.07,1111122 
DISL,ioos:station:DISL:CATA:1,2014-05-02T09:30:00Z,30.3085,-88.1395,2.193,8.14,1111122 
DISL,ioos:station:DISL:CATA:1,2014-05-02T10:00:00Z,30.3085,-88.1395,2.202,8.14,1111122 
DISL,ioos:station:DISL:CATA:1,2014-05-02T10:30:00Z,30.3085,-88.1395,2.224,8.1,1111122 
DISL,ioos:station:DISL:CATA:1,2014-05-02T11:00:00Z,30.3085,-88.1395,2.241,7.33,1111122 
DISL,ioos:station:DISL:CATA:1,2014-05-02T11:30:00Z,30.3085,-88.1395,2.276,7.8,1111122 
DISL,ioos:station:DISL:CATA:1,2014-05-02T12:00:00Z,30.3085,-88.1395,2.306,8.02,1111122 
DISL,ioos:station:DISL:CATA:1,2014-05-02T12:30:00Z,30.3085,-88.1395,2.345,8.15,1111122 
DISL,ioos:station:DISL:CATA:1,2014-05-02T13:00:00Z,30.3085,-88.1395,2.368,7.38,1111122 
DISL,ioos:station:DISL:CATA:1,2014-05-02T13:30:00Z,30.3085,-88.1395,2.395,7.98,1111122 
DISL,ioos:station:DISL:CATA:1,2014-05-02T14:00:00Z,30.3085,-88.1395,2.435,7.79,1111122 
DISL,ioos:station:DISL:CATA:1,2014-05-02T14:30:00Z,30.3085,-88.1395,2.454,7.93,1111122 
DISL,ioos:station:DISL:CATA:1,2014-05-02T15:00:00Z,30.3085,-88.1395,2.488,8.07,1111122 
DISL,ioos:station:DISL:CATA:1,2014-05-02T15:30:00Z,30.3085,-88.1395,2.51,8.36,1111122 
DISL,ioos:station:DISL:CATA:1,2014-05-02T16:00:00Z,30.3085,-88.1395,2.526,8.74,1111122 
DISL,ioos:station:DISL:CATA:1,2014-05-02T16:30:00Z,30.3085,-88.1395,2.555,8.84,1111122 
DISL,ioos:station:DISL:CATA:1,2014-05-02T17:00:00Z,30.3085,-88.1395,2.56,8.84,1111122 
DISL,ioos:station:DISL:CATA:1,2014-05-02T17:30:00Z,30.3085,-88.1395,2.585,9.02,1111122 
DISL,ioos:station:DISL:CATA:1,2014-05-02T18:00:00Z,30.3085,-88.1395,2.565,9.13,1111122 
DISL,ioos:station:DISL:CATA:1,2014-05-02T18:30:00Z,30.3085,-88.1395,2.558,9.21,1111122 
DISL,ioos:station:DISL:CATA:1,2014-05-02T19:00:00Z,30.3085,-88.1395,2.535,8.44,1111122 
DISL,ioos:station:DISL:CATA:1,2014-05-02T19:30:00Z,30.3085,-88.1395,2.535,9.73,1111122 
DISL,ioos:station:DISL:CATA:1,2014-05-02T20:00:00Z,30.3085,-88.1395,2.52,10.01,1111122 
DISL,ioos:station:DISL:CATA:1,2014-05-02T20:30:00Z,30.3085,-88.1395,2.503,10.09,1111122 
DISL,ioos:station:DISL:CATA:1,2014-05-02T21:00:00Z,30.3085,-88.1395,2.481,9.88,1111122 
DISL,ioos:station:DISL:CATA:1,2014-05-02T21:30:00Z,30.3085,-88.1395,2.463,9.66,1111122 
DISL,ioos:station:DISL:CATA:1,2014-05-02T22:00:00Z,30.3085,-88.1395,2.423,9.63,1111122 
DISL,ioos:station:DISL:CATA:1,2014-05-02T22:30:00Z,30.3085,-88.1395,2.382,9.11,1111122 
DISL,ioos:station:DISL:CATA:1,2014-05-02T23:00:00Z,30.3085,-88.1395,2.338,9.09,1111122 
DISL,ioos:station:DISL:CATA:1,2014-05-02T23:30:00Z,30.3085,-88.1395,2.285,9.09,1111122 
DISL,ioos:station:DISL:CATA:1,2014-05-03T00:00:00Z,30.3085,-88.1395,2.263,9.29,1111122 
DISL,ioos:station:DISL:CATA:1,2014-05-03T00:30:00Z,30.3085,-88.1395,2.224,9.62,1111122 
DISL,ioos:station:DISL:CATA:1,2014-05-03T01:00:00Z,30.3085,-88.1395,2.196,9.62,1111122 
DISL,ioos:station:DISL:CATA:1,2014-05-03T01:30:00Z,30.3085,-88.1395,2.184,9.39,1111122 
DISL,ioos:station:DISL:CATA:1,2014-05-03T02:00:00Z,30.3085,-88.1395,2.164,9.07,1111122 
DISL,ioos:station:DISL:CATA:1,2014-05-03T02:30:00Z,30.3085,-88.1395,2.151,8.96,1111122 
DISL,ioos:station:DISL:CATA:1,2014-05-03T03:00:00Z,30.3085,-88.1395,2.132,8.85,1111122 
DISL,ioos:station:DISL:CATA:1,2014-05-03T03:30:00Z,30.3085,-88.1395,2.111,8.85,1111122 
DISL,ioos:station:DISL:CATA:1,2014-05-03T04:00:00Z,30.3085,-88.1395,2.104,8.74,1111122 
DISL,ioos:station:DISL:CATA:1,2014-05-03T04:30:00Z,30.3085,-88.1395,2.091,8.69,1111122 
DISL,ioos:station:DISL:CATA:1,2014-05-03T05:00:00Z,30.3085,-88.1395,2.076,8.59,1111122 
DISL,ioos:station:DISL:CATA:1,2014-05-03T05:30:00Z,30.3085,-88.1395,2.071,8.48,1111122 
DISL,ioos:station:DISL:CATA:1,2014-05-03T06:00:00Z,30.3085,-88.1395,2.082,8.41,1111122 
DISL,ioos:station:DISL:CATA:1,2014-05-03T06:30:00Z,30.3085,-88.1395,2.107,8.37,1111122 
DISL,ioos:station:DISL:CATA:1,2014-05-03T07:00:00Z,30.3085,-88.1395,2.137,8.25,1111122 
DISL,ioos:station:DISL:CATA:1,2014-05-03T07:30:00Z,30.3085,-88.1395,2.159,8.05,1111122 
DISL,ioos:station:DISL:CATA:1,2014-05-03T08:00:00Z,30.3085,-88.1395,2.156,8.23,1111122 
DISL,ioos:station:DISL:CATA:1,2014-05-03T08:30:00Z,30.3085,-88.1395,2.167,8.29,1111122 
DISL,ioos:station:DISL:CATA:1,2014-05-03T09:00:00Z,30.3085,-88.1395,2.193,8.28,1111122 
DISL,ioos:station:DISL:CATA:1,2014-05-03T09:30:00Z,30.3085,-88.1395,2.228,8.26,1111122 
DISL,ioos:station:DISL:CATA:1,2014-05-03T10:00:00Z,30.3085,-88.1395,2.226,8.25,1111122 
DISL,ioos:station:DISL:CATA:1,2014-05-03T10:30:00Z,30.3085,-88.1395,2.239,8.26,1111122 
DISL,ioos:station:DISL:CATA:1,2014-05-03T11:00:00Z,30.3085,-88.1395,2.256,8.26,1111122 
DISL,ioos:station:DISL:CATA:1,2014-05-03T11:30:00Z,30.3085,-88.1395,2.296,8.25,1111122 
DISL,ioos:station:DISL:CATA:1,2014-05-03T12:00:00Z,30.3085,-88.1395,2.315,8.31,1111122 
DISL,ioos:station:DISL:CATA:1,2014-05-03T12:30:00Z,30.3085,-88.1395,2.343,8.34,1111122 
DISL,ioos:station:DISL:CATA:1,2014-05-03T13:00:00Z,30.3085,-88.1395,2.364,8.4,1111122 
DISL,ioos:station:DISL:CATA:1,2014-05-03T13:30:00Z,30.3085,-88.1395,2.374,8.54,1111122 
DISL,ioos:station:DISL:CATA:1,2014-05-03T14:00:00Z,30.3085,-88.1395,2.421,8.76,1111122 
DISL,ioos:station:DISL:CATA:1,2014-05-03T14:30:00Z,30.3085,-88.1395,2.452,8.99,1111122 
DISL,ioos:station:DISL:CATA:1,2014-05-03T15:00:00Z,30.3085,-88.1395,2.478,9.01,1111122 
DISL,ioos:station:DISL:CATA:1,2014-05-03T15:30:00Z,30.3085,-88.1395,2.493,9.12,1111122 
DISL,ioos:station:DISL:CATA:1,2014-05-03T16:00:00Z,30.3085,-88.1395,2.501,9.53,1111122 
DISL,ioos:station:DISL:CATA:1,2014-05-03T16:30:00Z,30.3085,-88.1395,2.514,9.58,1111122 
DISL,ioos:station:DISL:CATA:1,2014-05-03T17:00:00Z,30.3085,-88.1395,2.522,9.51,1111122 
DISL,ioos:station:DISL:CATA:1,2014-05-03T17:30:00Z,30.3085,-88.1395,2.528,9.54,1111122 
DISL,ioos:station:DISL:CATA:1,2014-05-03T18:00:00Z,30.3085,-88.1395,2.533,9.58,1111122 
DISL,ioos:station:DISL:CATA:1,2014-05-03T18:30:00Z,30.3085,-88.1395,2.536,9.63,1111122 
DISL,ioos:station:DISL:CATA:1,2014-05-03T19:00:00Z,30.3085,-88.1395,2.533,9.56,1111122 
DISL,ioos:station:DISL:CATA:1,2014-05-03T19:30:00Z,30.3085,-88.1395,2.52,9.54,1111122 
DISL,ioos:station:DISL:CATA:1,2014-05-03T20:00:00Z,30.3085,-88.1395,2.507,9.72,1111122 
DISL,ioos:station:DISL:CATA:1,2014-05-03T20:30:00Z,30.3085,-88.1395,2.498,9.72,1111122 
DISL,ioos:station:DISL:CATA:1,2014-05-03T21:00:00Z,30.3085,-88.1395,2.48,9.61,1111122 
DISL,ioos:station:DISL:CATA:1,2014-05-03T21:30:00Z,30.3085,-88.1395,2.449,9.66,1111122 
DISL,ioos:station:DISL:CATA:1,2014-05-03T22:00:00Z,30.3085,-88.1395,2.421,9.63,1111122 
DISL,ioos:station:DISL:CATA:1,2014-05-03T22:30:00Z,30.3085,-88.1395,2.4,9.7,1111122 
DISL,ioos:station:DISL:CATA:1,2014-05-03T23:00:00Z,30.3085,-88.1395,2.37,9.96,1111122 
DISL,ioos:station:DISL:CATA:1,2014-05-03T23:30:00Z,30.3085,-88.1395,2.329,9.89,1111122 
DISL,ioos:station:DISL:CATA:1,2014-05-04T00:00:00Z,30.3085,-88.1395,2.298,9.51,1111122 
DISL,ioos:station:DISL:CATA:1,2014-05-04T00:30:00Z,30.3085,-88.1395,2.259,9.39,1111122 
DISL,ioos:station:DISL:CATA:1,2014-05-04T01:00:00Z,30.3085,-88.1395,2.235,9.32,1111122 
DISL,ioos:station:DISL:CATA:1,2014-05-04T01:30:00Z,30.3085,-88.1395,2.21,8.88,1111122 
DISL,ioos:station:DISL:CATA:1,2014-05-04T02:00:00Z,30.3085,-88.1395,2.186,8.91,1111122 
DISL,ioos:station:DISL:CATA:1,2014-05-04T02:30:00Z,30.3085,-88.1395,2.159,8.47,1111122 
DISL,ioos:station:DISL:CATA:1,2014-05-04T03:00:00Z,30.3085,-88.1395,2.126,8.22,1111122 
DISL,ioos:station:DISL:CATA:1,2014-05-04T03:30:00Z,30.3085,-88.1395,2.106,8.28,1111122 
DISL,ioos:station:DISL:CATA:1,2014-05-04T04:00:00Z,30.3085,-88.1395,2.086,8.53,1111122 
DISL,ioos:station:DISL:CATA:1,2014-05-04T04:30:00Z,30.3085,-88.1395,2.056,8.57,1111122 
DISL,ioos:station:DISL:CATA:1,2014-05-04T05:00:00Z,30.3085,-88.1395,2.042,8.48,1111122 
DISL,ioos:station:DISL:CATA:1,2014-05-04T05:30:00Z,30.3085,-88.1395,2.034,8.67,1111122 
DISL,ioos:station:DISL:CATA:1,2014-05-04T06:00:00Z,30.3085,-88.1395,2.022,8.66,1111122 
DISL,ioos:station:DISL:CATA:1,2014-05-04T06:30:00Z,30.3085,-88.1395,2.015,8.61,1111122 
DISL,ioos:station:DISL:CATA:1,2014-05-04T07:00:00Z,30.3085,-88.1395,2.021,8.57,1111122 
DISL,ioos:station:DISL:CATA:1,2014-05-04T07:30:00Z,30.3085,-88.1395,2.04,8.45,1111122 
DISL,ioos:station:DISL:CATA:1,2014-05-04T08:00:00Z,30.3085,-88.1395,2.053,8.09,1111122 
DISL,ioos:station:DISL:CATA:1,2014-05-04T08:30:00Z,30.3085,-88.1395,2.061,8.29,1111122 
DISL,ioos:station:DISL:CATA:1,2014-05-04T09:00:00Z,30.3085,-88.1395,2.063,8.45,1111122 
DISL,ioos:station:DISL:CATA:1,2014-05-04T09:30:00Z,30.3085,-88.1395,2.06,8.38,1111122 
DISL,ioos:station:DISL:CATA:1,2014-05-04T10:00:00Z,30.3085,-88.1395,2.073,8.34,1111122 
DISL,ioos:station:DISL:CATA:1,2014-05-04T10:30:00Z,30.3085,-88.1395,2.097,8.29,1111122 
DISL,ioos:station:DISL:CATA:1,2014-05-04T11:00:00Z,30.3085,-88.1395,2.12,8.26,1111122 
DISL,ioos:station:DISL:CATA:1,2014-05-04T11:30:00Z,30.3085,-88.1395,2.14,8.21,1111122 
DISL,ioos:station:DISL:CATA:1,2014-05-04T12:00:00Z,30.3085,-88.1395,2.154,8.23,1111122 
DISL,ioos:station:DISL:CATA:1,2014-05-04T12:30:00Z,30.3085,-88.1395,2.176,8.2,1111122 
DISL,ioos:station:DISL:CATA:1,2014-05-04T13:00:00Z,30.3085,-88.1395,2.201,8.13,1111122 
DISL,ioos:station:DISL:CATA:1,2014-05-04T13:30:00Z,30.3085,-88.1395,2.227,8.42,1111122 
DISL,ioos:station:DISL:CATA:1,2014-05-04T14:00:00Z,30.3085,-88.1395,2.25,8.69,1111122 
DISL,ioos:station:DISL:CATA:1,2014-05-04T14:30:00Z,30.3085,-88.1395,2.274,8.78,1111122 
DISL,ioos:station:DISL:CATA:1,2014-05-04T15:00:00Z,30.3085,-88.1395,2.299,8.85,1111122 
DISL,ioos:station:DISL:CATA:1,2014-05-04T15:30:00Z,30.3085,-88.1395,2.317,8.78,1111122 
DISL,ioos:station:DISL:CATA:1,2014-05-04T16:00:00Z,30.3085,-88.1395,2.346,8.69,1111122 
DISL,ioos:station:DISL:CATA:1,2014-05-04T16:30:00Z,30.3085,-88.1395,2.363,8.87,1111122 
DISL,ioos:station:DISL:CATA:1,2014-05-04T17:00:00Z,30.3085,-88.1395,2.387,8.96,1111122 
DISL,ioos:station:DISL:CATA:1,2014-05-04T17:30:00Z,30.3085,-88.1395,2.4,8.93,1111122 
DISL,ioos:station:DISL:CATA:1,2014-05-04T18:00:00Z,30.3085,-88.1395,2.415,8.9,1111122 
DISL,ioos:station:DISL:CATA:1,2014-05-04T18:30:00Z,30.3085,-88.1395,2.42,9.09,1111122 
DISL,ioos:station:DISL:CATA:1,2014-05-04T19:00:00Z,30.3085,-88.1395,2.422,9.17,1111122 
DISL,ioos:station:DISL:CATA:1,2014-05-04T19:30:00Z,30.3085,-88.1395,2.416,9.14,1111122 
DISL,ioos:station:DISL:CATA:1,2014-05-04T20:00:00Z,30.3085,-88.1395,2.405,9.14,1111122 
DISL,ioos:station:DISL:CATA:1,2014-05-04T20:30:00Z,30.3085,-88.1395,2.4,9.15,1111122 
DISL,ioos:station:DISL:CATA:1,2014-05-04T21:00:00Z,30.3085,-88.1395,2.383,9.27,1111122 
DISL,ioos:station:DISL:CATA:1,2014-05-04T21:30:00Z,30.3085,-88.1395,2.376,9.18,1111122 
DISL,ioos:station:DISL:CATA:1,2014-05-04T22:00:00Z,30.3085,-88.1395,2.36,9.16,1111122 
DISL,ioos:station:DISL:CATA:1,2014-05-04T22:30:00Z,30.3085,-88.1395,2.344,8.89,1111122 
DISL,ioos:station:DISL:CATA:1,2014-05-04T23:00:00Z,30.3085,-88.1395,2.324,8.22,1111122 
DISL,ioos:station:DISL:CATA:1,2014-05-04T23:30:00Z,30.3085,-88.1395,2.299,7.51,1111122 
DISL,ioos:station:DISL:CATA:1,2014-05-05T00:00:00Z,30.3085,-88.1395,2.269,8.46,1111122 
DISL,ioos:station:DISL:CATA:1,2014-05-05T00:30:00Z,30.3085,-88.1395,2.247,8.38,1111122 
DISL,ioos:station:DISL:CATA:1,2014-05-05T01:00:00Z,30.3085,-88.1395,2.191,5.97,1111122 
DISL,ioos:station:DISL:CATA:1,2014-05-05T01:30:00Z,30.3085,-88.1395,2.159,6.29,1111122 
DISL,ioos:station:DISL:CATA:1,2014-05-05T02:00:00Z,30.3085,-88.1395,2.128,6.25,1111122 
DISL,ioos:station:DISL:CATA:1,2014-05-05T02:30:00Z,30.3085,-88.1395,2.103,6.01,1111122 
DISL,ioos:station:DISL:CATA:1,2014-05-05T03:00:00Z,30.3085,-88.1395,2.085,5.93,1111122 
DISL,ioos:station:DISL:CATA:1,2014-05-05T03:30:00Z,30.3085,-88.1395,2.067,5.76,1111122 
DISL,ioos:station:DISL:CATA:1,2014-05-05T04:00:00Z,30.3085,-88.1395,2.044,5.54,1111122 
DISL,ioos:station:DISL:CATA:1,2014-05-05T04:30:00Z,30.3085,-88.1395,2.026,5.23,1111122 
DISL,ioos:station:DISL:CATA:1,2014-05-05T05:00:00Z,30.3085,-88.1395,2.02,5.09,1111122 
DISL,ioos:station:DISL:CATA:1,2014-05-05T05:30:00Z,30.3085,-88.1395,2.018,4.95,1111122 
DISL,ioos:station:DISL:CATA:1,2014-05-05T06:00:00Z,30.3085,-88.1395,2.012,4.89,1111122 
DISL,ioos:station:DISL:CATA:1,2014-05-05T06:30:00Z,30.3085,-88.1395,2.011,4.87,1111122 
DISL,ioos:station:DISL:CATA:1,2014-05-05T07:00:00Z,30.3085,-88.1395,2.007,4.42,1111122 
DISL,ioos:station:DISL:CATA:1,2014-05-05T07:30:00Z,30.3085,-88.1395,2.012,3.72,1111122 
DISL,ioos:station:DISL:CATA:1,2014-05-05T08:00:00Z,30.3085,-88.1395,2.02,4.53,1111122 
DISL,ioos:station:DISL:CATA:1,2014-05-05T08:30:00Z,30.3085,-88.1395,2.029,5.59,1111122 
DISL,ioos:station:DISL:CATA:1,2014-05-05T09:00:00Z,30.3085,-88.1395,2.038,7.54,1111122 
DISL,ioos:station:DISL:CATA:1,2014-05-05T09:30:00Z,30.3085,-88.1395,2.054,7.51,1111122 
DISL,ioos:station:DISL:CATA:1,2014-05-05T10:00:00Z,30.3085,-88.1395,2.064,6.95,1111122 
DISL,ioos:station:DISL:CATA:1,2014-05-05T10:30:00Z,30.3085,-88.1395,2.082,6.99,1111122 
DISL,ioos:station:DISL:CATA:1,2014-05-05T11:00:00Z,30.3085,-88.1395,2.09,7.46,1111122 
DISL,ioos:station:DISL:CATA:1,2014-05-05T11:30:00Z,30.3085,-88.1395,2.115,7.25,1111122 
DISL,ioos:station:DISL:CATA:1,2014-05-05T12:00:00Z,30.3085,-88.1395,2.14,7.41,1111122 
DISL,ioos:station:DISL:CATA:1,2014-05-05T12:30:00Z,30.3085,-88.1395,2.162,7.46,1111122 
DISL,ioos:station:DISL:CATA:1,2014-05-05T13:00:00Z,30.3085,-88.1395,2.196,7.65,1111122 
DISL,ioos:station:DISL:CATA:1,2014-05-05T13:30:00Z,30.3085,-88.1395,2.233,7.79,1111122 
DISL,ioos:station:DISL:CATA:1,2014-05-05T14:00:00Z,30.3085,-88.1395,2.255,7.78,1111122 
DISL,ioos:station:DISL:CATA:1,2014-05-05T14:30:00Z,30.3085,-88.1395,2.279,7.65,1111122 
DISL,ioos:station:DISL:CATA:1,2014-05-05T15:00:00Z,30.3085,-88.1395,2.302,7.69,1111122 
DISL,ioos:station:DISL:CATA:1,2014-05-05T15:30:00Z,30.3085,-88.1395,2.32,7.8,1111122 
DISL,ioos:station:DISL:CATA:1,2014-05-05T16:00:00Z,30.3085,-88.1395,2.344,7.9,1111122 
DISL,ioos:station:DISL:CATA:1,2014-05-05T16:30:00Z,30.3085,-88.1395,2.366,7.87,1111122 
DISL,ioos:station:DISL:CATA:1,2014-05-05T17:00:00Z,30.3085,-88.1395,2.383,7.92,1111122 
DISL,ioos:station:DISL:CATA:1,2014-05-05T17:30:00Z,30.3085,-88.1395,2.396,8.08,1111122 
DISL,ioos:station:DISL:CATA:1,2014-05-05T18:00:00Z,30.3085,-88.1395,2.409,8.08,1111122 
DISL,ioos:station:DISL:CATA:1,2014-05-05T18:30:00Z,30.3085,-88.1395,2.421,7.99,1111122 
DISL,ioos:station:DISL:CATA:1,2014-05-05T19:00:00Z,30.3085,-88.1395,2.423,7.97,1111122 
DISL,ioos:station:DISL:CATA:1,2014-05-05T19:30:00Z,30.3085,-88.1395,2.427,8.3,1111122 
DISL,ioos:station:DISL:CATA:1,2014-05-05T20:00:00Z,30.3085,-88.1395,2.435,8.46,1111122 
DISL,ioos:station:DISL:CATA:1,2014-05-05T20:30:00Z,30.3085,-88.1395,2.432,8.59,1111122 
DISL,ioos:station:DISL:CATA:1,2014-05-05T21:00:00Z,30.3085,-88.1395,2.422,8.67,1111122 
DISL,ioos:station:DISL:CATA:1,2014-05-05T21:30:00Z,30.3085,-88.1395,2.419,8.62,1111122 
DISL,ioos:station:DISL:CATA:1,2014-05-05T22:00:00Z,30.3085,-88.1395,2.404,8.57,1111122 
DISL,ioos:station:DISL:CATA:1,2014-05-05T22:30:00Z,30.3085,-88.1395,2.383,8.48,1111122 
DISL,ioos:station:DISL:CATA:1,2014-05-05T23:00:00Z,30.3085,-88.1395,2.374,8.27,1111122 
DISL,ioos:station:DISL:CATA:1,2014-05-05T23:30:00Z,30.3085,-88.1395,2.353,7.81,1111122 
DISL,ioos:station:DISL:CATA:1,2014-05-06T00:00:00Z,30.3085,-88.1395,2.335,7.15,1111122 
DISL,ioos:station:DISL:CATA:1,2014-05-06T00:30:00Z,30.3085,-88.1395,2.305,7.25,1111122 
DISL,ioos:station:DISL:CATA:1,2014-05-06T01:00:00Z,30.3085,-88.1395,2.285,7.44,1111122 
DISL,ioos:station:DISL:CATA:1,2014-05-06T01:30:00Z,30.3085,-88.1395,2.262,7.43,1111122 
DISL,ioos:station:DISL:CATA:1,2014-05-06T02:00:00Z,30.3085,-88.1395,2.228,6.35,1111122 
DISL,ioos:station:DISL:CATA:1,2014-05-06T02:30:00Z,30.3085,-88.1395,2.165,5.3,1111122 
DISL,ioos:station:DISL:CATA:1,2014-05-06T03:00:00Z,30.3085,-88.1395,2.128,5.48,1111122 
DISL,ioos:station:DISL:CATA:1,2014-05-06T03:30:00Z,30.3085,-88.1395,2.108,5.67,1111122 
DISL,ioos:station:DISL:CATA:1,2014-05-06T04:00:00Z,30.3085,-88.1395,2.097,5.73,1111122 
DISL,ioos:station:DISL:CATA:1,2014-05-06T04:30:00Z,30.3085,-88.1395,2.097,5.51,1111122 
DISL,ioos:station:DISL:CATA:1,2014-05-06T05:00:00Z,30.3085,-88.1395,2.099,5.71,1111122 
DISL,ioos:station:DISL:CATA:1,2014-05-06T05:30:00Z,30.3085,-88.1395,2.1,5.94,1111122 
DISL,ioos:station:DISL:CATA:1,2014-05-06T06:00:00Z,30.3085,-88.1395,2.099,5.08,1111122 
DISL,ioos:station:DISL:CATA:1,2014-05-06T06:30:00Z,30.3085,-88.1395,2.097,4.29,1111122 
DISL,ioos:station:DISL:CATA:1,2014-05-06T07:00:00Z,30.3085,-88.1395,2.1,5.07,1111122 
DISL,ioos:station:DISL:CATA:1,2014-05-06T07:30:00Z,30.3085,-88.1395,2.097,7.37,1111122 
DISL,ioos:station:DISL:CATA:1,2014-05-06T08:00:00Z,30.3085,-88.1395,2.099,7.38,1111122 
DISL,ioos:station:DISL:CATA:1,2014-05-06T08:30:00Z,30.3085,-88.1395,2.116,7.24,1111122 
DISL,ioos:station:DISL:CATA:1,2014-05-06T09:00:00Z,30.3085,-88.1395,2.123,7.31,1111122 
DISL,ioos:station:DISL:CATA:1,2014-05-06T09:30:00Z,30.3085,-88.1395,2.136,7.19,1111122 
DISL,ioos:station:DISL:CATA:1,2014-05-06T10:00:00Z,30.3085,-88.1395,2.148,7.05,1111122 
DISL,ioos:station:DISL:CATA:1,2014-05-06T10:30:00Z,30.3085,-88.1395,2.176,6.92,1111122 
DISL,ioos:station:DISL:CATA:1,2014-05-06T11:00:00Z,30.3085,-88.1395,2.185,6.68,1111122 
DISL,ioos:station:DISL:CATA:1,2014-05-06T11:30:00Z,30.3085,-88.1395,2.214,6.66,1111122 
DISL,ioos:station:DISL:CATA:1,2014-05-06T12:00:00Z,30.3085,-88.1395,2.24,7.05,1111122 
DISL,ioos:station:DISL:CATA:1,2014-05-06T12:30:00Z,30.3085,-88.1395,2.265,7.16,1111122 
DISL,ioos:station:DISL:CATA:1,2014-05-06T13:00:00Z,30.3085,-88.1395,2.283,7.18,1111122 
DISL,ioos:station:DISL:CATA:1,2014-05-06T13:30:00Z,30.3085,-88.1395,2.315,7.17,1111122 
DISL,ioos:station:DISL:CATA:1,2014-05-06T14:00:00Z,30.3085,-88.1395,2.322,7.25,1111122 
DISL,ioos:station:DISL:CATA:1,2014-05-06T14:30:00Z,30.3085,-88.1395,2.34,7.37,1111122 
DISL,ioos:station:DISL:CATA:1,2014-05-06T15:00:00Z,30.3085,-88.1395,2.357,7.47,1111122 
DISL,ioos:station:DISL:CATA:1,2014-05-06T15:30:00Z,30.3085,-88.1395,2.377,7.5,1111122 